TimeCDT,TemperatureF,Dew PointF,Humidity,Sea Level PressureIn,VisibilityMPH,Wind Direction,Wind SpeedMPH,Gust SpeedMPH,PrecipitationIn,Events,Conditions,WindDirDegrees,DateUTC
12:15 AM,59.0,55.4,88,29.97,10.0,South,5.8,-,N/A,,Clear,180,2013-07-04 05:15:00
12:35 AM,62.6,55.4,77,29.96,10.0,South,6.9,-,N/A,,Clear,190,2013-07-04 05:35:00
12:55 AM,62.6,55.4,77,29.96,10.0,South,6.9,-,N/A,,Clear,190,2013-07-04 05:55:00
1:15 AM,60.8,55.4,82,29.96,10.0,South,6.9,-,N/A,,Clear,180,2013-07-04 06:15:00
1:35 AM,60.8,55.4,82,29.96,10.0,South,6.9,-,N/A,,Clear,170,2013-07-04 06:35:00
1:55 AM,60.8,55.4,82,29.96,10.0,South,5.8,-,N/A,,Clear,180,2013-07-04 06:55:00
2:15 AM,59.0,55.4,88,29.95,10.0,SSE,6.9,-,N/A,,Clear,160,2013-07-04 07:15:00
2:35 AM,59.0,55.4,88,29.95,10.0,South,5.8,-,N/A,,Clear,180,2013-07-04 07:35:00
2:55 AM,57.2,55.4,94,29.95,10.0,South,6.9,-,N/A,,Clear,170,2013-07-04 07:55:00
3:15 AM,57.2,55.4,94,29.95,10.0,South,6.9,-,N/A,,Clear,170,2013-07-04 08:15:00
3:35 AM,57.2,53.6,88,29.95,10.0,South,5.8,-,N/A,,Clear,180,2013-07-04 08:35:00
3:55 AM,57.2,53.6,88,29.95,10.0,South,6.9,-,N/A,,Clear,170,2013-07-04 08:55:00
4:15 AM,57.2,55.4,94,29.95,10.0,South,5.8,-,N/A,,Clear,180,2013-07-04 09:15:00
4:35 AM,57.2,53.6,88,29.95,10.0,South,5.8,-,N/A,,Clear,170,2013-07-04 09:35:00
4:55 AM,57.2,53.6,88,29.95,10.0,South,5.8,-,N/A,,Clear,170,2013-07-04 09:55:00
5:15 AM,55.4,53.6,94,29.95,10.0,South,4.6,-,N/A,,Clear,170,2013-07-04 10:15:00
5:35 AM,55.4,53.6,94,29.95,8.0,SSE,4.6,-,N/A,,Clear,160,2013-07-04 10:35:00
5:55 AM,55.4,53.6,94,29.95,10.0,SSE,3.5,-,N/A,,Clear,160,2013-07-04 10:55:00
6:15 AM,55.4,53.6,94,29.95,10.0,SSE,4.6,-,N/A,,Clear,150,2013-07-04 11:15:00
6:35 AM,57.2,53.6,88,29.95,10.0,SSE,5.8,-,N/A,,Clear,150,2013-07-04 11:35:00
6:55 AM,59.0,55.4,88,29.95,10.0,SSE,5.8,-,N/A,,Clear,160,2013-07-04 11:55:00
7:15 AM,60.8,55.4,82,29.94,10.0,SSE,4.6,-,N/A,,Clear,160,2013-07-04 12:15:00
7:35 AM,62.6,55.4,77,29.94,10.0,South,6.9,-,N/A,,Clear,170,2013-07-04 12:35:00
7:55 AM,64.4,55.4,73,29.94,10.0,South,6.9,-,N/A,,Clear,180,2013-07-04 12:55:00
8:15 AM,66.2,53.6,64,29.94,10.0,South,9.2,-,N/A,,Clear,180,2013-07-04 13:15:00
8:35 AM,68.0,53.6,60,29.94,10.0,South,9.2,-,N/A,,Clear,170,2013-07-04 13:35:00
8:55 AM,69.8,55.4,60,29.94,10.0,South,8.1,-,N/A,,Clear,180,2013-07-04 13:55:00
9:15 AM,71.6,55.4,57,29.93,10.0,South,8.1,-,N/A,,Clear,180,2013-07-04 14:15:00
9:35 AM,73.4,55.4,53,29.93,10.0,SSE,9.2,-,N/A,,Clear,150,2013-07-04 14:35:00
9:55 AM,73.4,55.4,53,29.92,10.0,SSE,8.1,-,N/A,,Clear,160,2013-07-04 14:55:00
10:15 AM,75.2,53.6,47,29.92,10.0,SSE,11.5,-,N/A,,Clear,160,2013-07-04 15:15:00
10:35 AM,75.2,53.6,47,29.92,8.0,SSE,9.2,-,N/A,,Clear,160,2013-07-04 15:35:00
10:55 AM,77.0,53.6,44,29.92,10.0,SSE,15.0,-,N/A,,Clear,150,2013-07-04 15:55:00
11:15 AM,78.8,53.6,42,29.91,10.0,South,10.4,-,N/A,,Clear,170,2013-07-04 16:15:00
11:35 AM,78.8,55.4,44,29.91,10.0,SSE,15.0,-,N/A,,Clear,160,2013-07-04 16:35:00
11:55 AM,78.8,55.4,44,29.90,10.0,SSE,10.4,17.3,N/A,,Clear,160,2013-07-04 16:55:00
12:15 PM,78.8,57.2,47,29.89,10.0,SSE,11.5,-,N/A,,Clear,150,2013-07-04 17:15:00
12:35 PM,80.6,57.2,45,29.89,10.0,SSE,12.7,17.3,N/A,,Clear,160,2013-07-04 17:35:00
12:55 PM,80.6,57.2,45,29.88,10.0,SSE,10.4,-,N/A,,Clear,160,2013-07-04 17:55:00
1:15 PM,80.6,57.2,45,29.88,10.0,South,15.0,20.7,N/A,,Clear,190,2013-07-04 18:15:00
1:35 PM,82.4,57.2,42,29.88,10.0,South,16.1,21.9,N/A,,Clear,180,2013-07-04 18:35:00
1:55 PM,82.4,57.2,42,29.87,10.0,South,18.4,23.0,N/A,,Clear,170,2013-07-04 18:55:00
2:15 PM,82.4,57.2,42,29.87,10.0,South,15.0,20.7,N/A,,Scattered Clouds,170,2013-07-04 19:15:00
2:35 PM,82.4,57.2,42,29.87,10.0,South,16.1,21.9,N/A,,Partly Cloudy,190,2013-07-04 19:35:00
2:55 PM,82.4,57.2,42,29.86,10.0,South,16.1,21.9,N/A,,Partly Cloudy,170,2013-07-04 19:55:00
3:15 PM,80.6,57.2,45,29.86,10.0,South,11.5,20.7,N/A,,Clear,180,2013-07-04 20:15:00
3:35 PM,82.4,59.0,45,29.86,10.0,South,18.4,23.0,N/A,,Clear,180,2013-07-04 20:35:00
3:55 PM,82.4,59.0,45,29.86,10.0,South,16.1,24.2,N/A,,Clear,180,2013-07-04 20:55:00
4:15 PM,80.6,59.0,48,29.86,10.0,South,13.8,23.0,N/A,,Clear,180,2013-07-04 21:15:00
4:35 PM,80.6,60.8,51,29.86,10.0,South,9.2,18.4,N/A,,Clear,180,2013-07-04 21:35:00
4:55 PM,82.4,60.8,48,29.86,10.0,South,16.1,21.9,N/A,,Clear,180,2013-07-04 21:55:00
5:15 PM,82.4,60.8,48,29.86,10.0,South,11.5,19.6,N/A,,Clear,180,2013-07-04 22:15:00
5:35 PM,80.6,60.8,51,29.86,10.0,South,13.8,23.0,N/A,,Clear,180,2013-07-04 22:35:00
5:55 PM,82.4,60.8,48,29.86,10.0,SSE,11.5,18.4,N/A,,Clear,160,2013-07-04 22:55:00
6:15 PM,80.6,60.8,51,29.85,10.0,South,13.8,21.9,N/A,,Clear,170,2013-07-04 23:15:00
6:35 PM,80.6,59.0,48,29.85,10.0,South,12.7,17.3,N/A,,Clear,170,2013-07-04 23:35:00
6:55 PM,80.6,59.0,48,29.85,10.0,South,10.4,17.3,N/A,,Clear,180,2013-07-04 23:55:00
7:15 PM,80.6,59.0,48,29.85,10.0,South,10.4,-,N/A,,Clear,170,2013-07-05 00:15:00
7:35 PM,78.8,59.0,51,29.85,10.0,SSE,9.2,-,N/A,,Clear,160,2013-07-05 00:35:00
7:55 PM,78.8,60.8,54,29.84,10.0,SSE,8.1,-,N/A,,Clear,160,2013-07-05 00:55:00
8:15 PM,75.2,59.0,57,29.84,10.0,SSE,6.9,-,N/A,,Clear,150,2013-07-05 01:15:00
8:35 PM,75.2,59.0,57,29.84,10.0,SSE,6.9,-,N/A,,Clear,160,2013-07-05 01:35:00
8:55 PM,73.4,59.0,61,29.84,10.0,SSE,6.9,-,N/A,,Clear,150,2013-07-05 01:55:00
9:15 PM,73.4,59.0,61,29.84,10.0,SE,5.8,-,N/A,,Clear,140,2013-07-05 02:15:00
9:35 PM,71.6,59.0,64,29.85,10.0,SE,5.8,-,N/A,,Mostly Cloudy,140,2013-07-05 02:35:00
9:55 PM,71.6,59.0,64,29.85,10.0,SSE,5.8,-,N/A,,Overcast,150,2013-07-05 02:55:00
10:15 PM,71.6,59.0,64,29.85,10.0,SSE,8.1,-,N/A,,Mostly Cloudy,160,2013-07-05 03:15:00
10:35 PM,71.6,59.0,64,29.85,10.0,SSE,9.2,-,N/A,,Partly Cloudy,160,2013-07-05 03:35:00
10:55 PM,71.6,57.2,60,29.85,10.0,SSE,9.2,-,N/A,,Clear,160,2013-07-05 03:55:00
11:15 PM,71.6,57.2,60,29.85,10.0,SSE,8.1,-,N/A,,Clear,160,2013-07-05 04:15:00
11:35 PM,69.8,57.2,64,29.85,10.0,SSE,9.2,-,N/A,,Clear,160,2013-07-05 04:35:00
11:55 PM,69.8,57.2,64,29.85,10.0,South,10.4,-,N/A,,Clear,170,2013-07-05 04:55:00